Miscellaneous Local Product
Issued by NWS North Platte, NE

Home | Current Version | Previous Version | Graphics & Text | Print | Product List | Glossary On
Versions: 1 2 3 4 5 6 7 8 9 10 11 12 13 14 15 16 17 18 19 20 21 22 23 24 25 26 27 28 29 30 31 32 33 34 35 36 37 38 39 40 41 42 43 44 45 46 47 48 49 50
269
AXUS43 KLBF 011610
MISLBF


WESTERN AND NORTH CENTRAL NEBRASKA HOURLY WEATHER ROUNDUP
NATIONAL WEATHER SERVICE NORTH PLATTE NE
1100 AM CDT SUN MAY 01 2016

NOTE: "FAIR" INDICATES FEW OR NO CLOUDS BELOW 12,000 FEET WITH NO
SIGNIFICANT WEATHER AND/OR OBSTRUCTIONS TO VISIBILITY.

NOTE: STATIONS NOT REPORTING VARIABLES SUCH AS SKY/WEATHER OR
PRESSURE ARE PROVIDED BY RAWS AND APRS NETWORKS AND ARE NOT UNDER
NATIONAL WEATHER SERVICE QUALITY CONTROL.

...OBSERVATIONS IN AND NEAR THE EASTERN PANHANDLE OF NEBRASKA...

CITY           SKY/WX    TMP DP  RH WIND       PRES   REMARKS
PINE RIDGE     SUNNY     48  32  53 N13       30.31R
CHADRON        CLOUDY    50  31  48 NE17G24   30.32S
ALLIANCE       SUNNY     37  31  78 N13       30.29R WCI  29
SIDNEY         CLOUDY    37  32  82 NW12      30.31R WCI  29
CRESCENT LAKE    N/A     38  32  80 N10         N/A  WCI  31
BIG SPRINGS      N/A     38  35  89 NW8         N/A  WCI  32
$$

...OBSERVATIONS IN NORTHERN NEBRASKA AND FAR SOUTHERN SOUTH DAKOTA...

CITY           SKY/WX    TMP DP  RH WIND       PRES   REMARKS
WINNER         FAIR      51  37  58 N20       30.26S
VALENTINE      SUNNY     48  32  53 N17G24    30.26R
THEDFORD       SUNNY     43  36  77 N15       30.24R
AINSWORTH      CLOUDY    47  34  61 N21G30    30.23R
O`NEILL        CLOUDY    42  39  91 N9        30.21S
ORD            CLOUDY    44  40  85 N20       30.17R
BROKEN BOW     CLOUDY    44  38  79 N18G24    30.19R
VALENTINE NWR    N/A     45  37  72 N14         N/A
BUTTE            N/A     43  37  78 N14         N/A
HALSEY           N/A     44  37  76 N10G20      N/A
CHAMBERS         N/A     43  41  93 N10         N/A
EWING            N/A     43  41  94 NE5G12      N/A
$$

...OBSERVATIONS IN SOUTHWEST NEBRASKA AND FAR NORTHEAST COLORADO...

CITY           SKY/WX    TMP DP  RH WIND       PRES   REMARKS
HOLYOKE        FAIR      41  34  75 N16       30.30R
IMPERIAL       CLOUDY    43  36  76 N22       30.26R
OGALLALA       MOSUNNY   45  33  63 N16G25    30.28R
NORTH PLATTE   CLOUDY    43  36  76 N18       30.22R
MCCOOK         CLOUDY    44  38  79 NW13      30.23R
LEXINGTON      CLOUDY    45  40  81 N16G23    30.19R
PAXTON           N/A     41  39  92 N12         N/A
STAPLETON        N/A     42  36  80 NW3         N/A
GOTHENBURG       N/A     42  37  81 N12         N/A
CALLAWAY         N/A     42  38  87 N20         N/A
$$

...OBSERVATIONS IN CENTRAL LINCOLN COUNTY AREA...

CITY           SKY/WX    TMP DP  RH WIND       PRES   REMARKS
N.P. AIRPORT   CLOUDY    43  36  76 N18       30.22R
N.P. DOWNTOWN    N/A     44  38  78 N13G25      N/A
N.P. HILLCREST   N/A     42  38  85 N20G26      N/A
$$

...SOME OBSERVATIONS FROM AROUND THE REGION...

CITY           SKY/WX    TMP DP  RH WIND       PRES   REMARKS
DENVER         FLURRIES  34  30  85 N8        30.32S WCI  27
LARAMIE        CLOUDY    29  21  72 NE8       30.29S WCI  21
CHEYENNE       CLOUDY    35  26  69 N9        30.32R WCI  28
SCOTTSBLUFF    CLOUDY    46  28  49 N14       30.33R
RAPID CITY     SUNNY     50  30  46 N14G21    30.32F
BISMARCK       SUNNY     55  31  39 VRB3      30.33F
PIERRE         SUNNY     52  33  48 N10       30.28S
SIOUX FALLS    PTSUNNY   47  38  71 N15       30.19S
OMAHA          LGT RAIN  46  44  93 N14       30.07R FOG
GRAND ISLAND   LGT RAIN  43  41  93 N17       30.14S
KANSAS CITY    CLOUDY    58  49  72 NW10      29.99R
WICHITA        CLOUDY    52  44  74 NW13      30.09R
OKLAHOMA CITY  CLOUDY    55  40  56 N15       30.08S
DALLAS         SUNNY     67  47  48 N20G28    30.02S
AMARILLO       CLOUDY    45  33  63 N23G35    30.16R
DODGE CITY     CLOUDY    43  35  73 N22G31    30.16R
HAYS           CLOUDY    46  34  61 NW18G26   30.15R
GOODLAND       CLOUDY    39  36  89 N24G35    30.23R WCI  28
$$




USA.gov is the U.S. government's official web portal to all federal, state and local government web resources and services.